Location: Chiroubles
(46.1812°N, 4.6660°E)
Time: 13:29:28
(UTC+00:00)

Cosmos 1733 Rocket - Visible Passes

Search period start: 09 December 2021 00:00
Search period end: 19 December 2021 00:00
Orbit: 603 x 628 km, 82.5° (Epoch: 08 December)

Date Brightness Start Highest point End Pass type
(mag) Time Alt. Az. Time Alt. Az. Time Alt. Az.
14 Dec 5.9 06:29:58 10° ESE 06:32:42 16° E 06:35:24 10° NE visible
16 Dec 4.8 17:06:59 10° NNE 17:08:04 14° NE 17:08:04 14° NE visible
16 Dec 5.0 18:43:44 10° NNW 18:52:19 - S 18:45:20 21° NNW visible
17 Dec 3.9 17:22:34 10° NNE 17:26:18 27° ENE 17:30:00 10° SE visible
17 Dec 4.9 19:00:20 10° NNW 19:04:03 28° W 19:07:46 10° SSW visible
18 Dec 6.0 05:57:25 10° ESE 05:59:59 15° E 06:02:34 10° NE visible
18 Dec 3.2 17:38:30 10° N 17:42:41 47° ENE 17:46:51 10° SSE visible
18 Dec 5.8 19:17:19 10° NW 19:20:05 17° W 19:22:50 10° SW visible
